{"data":{"norad_id":60367,"epoch":"2026-09-21T21:27:14.549760Z","epoch_age_seconds":65073,"freshness":"FRESH","line1":"1 60367U 24138N   26264.89391840 -.00003275  00000+0 -93812-4 0  9997","line2":"2 60367  53.1576 117.0986 0001168  89.7284 270.3851 15.31696043120688","mean_motion":15.31696043,"eccentricity":0.0001168,"inclination_deg":53.1576,"raan_deg":117.0986,"arg_perigee_deg":89.7284,"mean_anomaly_deg":270.3851,"bstar":-9.3812e-5,"rev_number":12068,"period_min":94.013430835768,"perigee_km":469.95184065136,"apogee_km":471.55174107291,"semimajor_km":6848.8887908621,"source":"CELESTRAK","updated_at":"2026-09-22T09:00:49.226245Z"}}